Regional Weather Roundup
Issued by NWS Upton, NY

Current Version | Previous Version | Text Only | Print | Product List | Glossary On
Versions: 1 2 3 4 5 6 7 8 9 10 11 12 13 14 15 16 17 18 19 20 21 22 23 24 25 26 27 28 29 30 31 32 33 34 35 36 37 38 39 40 41 42 43 44 45 46 47 48 49 50
000
ASUS41 KOKX 261907
RWROKX

REGIONAL WEATHER ROUNDUP
NATIONAL WEATHER SERVICE NEW YORK NY
300 PM EDT SUN APR 26 2015

NOTE: "FAIR" INDICATES FEW OR NO CLOUDS BELOW 12,000 FEET WITH NO
SIGNIFICANT WEATHER AND/OR OBSTRUCTIONS TO VISIBILITY.

NYZ071-072-176-178-NJZ106-104-262000-
NEW YORK CITY METRO AREA


CITY           SKY/WX    TMP DP  RH WIND       PRES   REMARKS
CENTRAL PARK   CLOUDY    61  26  26 N7        29.69S
LAGUARDIA APRT PTSUNNY   59  27  29 CALM      29.66F
KENNEDY INTL   PTSUNNY   58  33  39 S12       29.68F
NEWARK/LIBERTY PTSUNNY   60  28  29 SW6       29.67S
BRNX BOT. GARD   N/A     59  28  31 NE6       29.69S
TETERBORO      PTSUNNY   60  29  30 W5G16     29.65F
$$

NYZ177-179-078>081-262000-
LONG ISLAND NEW YORK

CITY           SKY/WX    TMP DP  RH WIND       PRES   REMARKS
FARMINGDALE    CLOUDY    55  35  47 SW8       29.67S
ISLIP          PTSUNNY   58  28  32 NW10G18   29.65S
SHIRLEY        CLOUDY    54  36  50 S10       29.67S
WESTHAMPTON    CLOUDY    55  34  45 SW9       29.67S
MONTAUK POINT    N/A     52  36  54 S6        29.66F
$$

NYZ052-065-067-262000-
HUDSON VALLEY

CITY           SKY/WX    TMP DP  RH WIND       PRES   REMARKS
WHITE PLAINS   PTSUNNY   57  28  33 NW9G20    29.65F
NEWBURGH       NOT AVBL
MONTGOMERY     CLOUDY    59  29  31 NW8       29.64F
POUGHKEEPSIE   CLOUDY    59  29  31 NW8       29.65S
ALBANY         CLOUDY    56  29  35 NW14G22   29.67F
$$

NJZ001-105-106-008-010-013-015-019>022-104-262000-
NEW JERSEY

CITY           SKY/WX    TMP DP  RH WIND       PRES   REMARKS
NEWARK/LIBERTY PTSUNNY   60  28  29 SW6       29.67S
TETERBORO      PTSUNNY   60  29  30 W5G16     29.65F
CALDWELL       PTSUNNY   59  27  29 CALM      29.66F
MORRISTOWN     PTSUNNY   63  30  29 W7        29.67F
SOMERVILLE     CLOUDY    61  27  27 VRB5      29.65F
SUSSEX         CLOUDY    58  27  30 VRB6      29.67F
ANDOVER          N/A     58  26  29 CALM      29.66F
TRENTON        PTSUNNY   60  29  30 VRB5      29.67F
MILLVILLE      CLOUDY    58  33  39 VRB6      29.68S
ATLANTIC CITY  SUNNY     56  31  38 E13       29.69F
WRIGHTSTOWN    SUNNY     61  29  29 NW7       29.65F
TOMS RIVER     SUNNY     57  27  30 E9        29.69F
BELMAR         CLOUDY    57  30  35 E12       29.68F
$$

PAZ047>061-062-071-262000-
EASTERN PENNSYLVANIA

CITY           SKY/WX    TMP DP  RH WIND       PRES   REMARKS
PHILADELPHIA   MOSUNNY   60  30  32 VRB5      29.68F
ALLENTOWN      CLOUDY    59  30  33 CALM      29.67F
SCRANTON       CLOUDY    54  27  35 NW8       29.70F
$$

CTZ002-004>006-009-010-012-RIZ004-006-007-MAZ004-011-015-262000-
SOUTHERN NEW ENGLAND
 IN CT

CITY           SKY/WX    TMP DP  RH WIND       PRES   REMARKS
BRADLEY INTL   CLOUDY    58  30  34 N10       29.64S
HARTFORD       CLOUDY    57  29  34 N12       29.64S
DANBURY        CLOUDY    57  27  31 VRB7      29.66S
WTRBRY/OXFORD  PTSUNNY   54  30  40 N10       29.65F
BRIDGEPORT     CLOUDY    59  33  37 SW14      29.65F
MERIDEN        CLOUDY    59  26  28 N9        29.64F
NEW HAVEN      CLOUDY    53  35  50 S10       29.65F
CHESTER        CLOUDY    55  30  38 N8        29.64F
GROTON         CLOUDY    52  33  48 SW15      29.63F
WILLIMANTIC    CLOUDY    57  28  33 N10       29.64S

 IN RI

CITY           SKY/WX    TMP DP  RH WIND       PRES   REMARKS
PROVIDENCE     PTSUNNY   56  30  37 NW8       29.64S
BLOCK ISLAND   CLOUDY    54  30  40 W9        29.65F
WESTERLY       CLOUDY    51  35  54 S8        29.65S

 IN MA

CITY           SKY/WX    TMP DP  RH WIND       PRES   REMARKS
BOSTON         CLOUDY    49  36  61 SE3       29.64F
WORCESTER      CLOUDY    52  27  38 NW10      29.63S
WESTFIELD      CLOUDY    56  28  34 NW12      29.65S
PROVINCETOWN   MOSUNNY  N/A N/A N/A NE5       29.63F
NANTUCKET      SUNNY     49  33  54 S9        29.64S
$$

ANZ330-335-338-340-345-350-353-355-262000-
COASTAL MARINE OBSERVATIONS


STATION/POSITION TIME  SKY/WX   TEMP    WIND        PRES    VSBY  WAVE
                                AIR SEA DIR/SP/G                  HT/PER
                 (UTC)          (F)     (DEG/KT/KT) (MB)    (MI)  (FT/S)
NY HARB ENTRANCE 1850            47 48  200/  8/ 10 1005.0          1/12
4S FIRE IS       1803               45                N/A           1/11
20S FIRE ISLAND  1850            47 47  230/  4/  6 1005.3          1/11
23SW MTP         NOT AVBL
HUDSON CANYON    NOT AVBL
EXECUTION ROCKS  NOT AVBL
WESTERN LI SOUND NOT AVBL
CENTRAL LI SOUND NOT AVBL
EASTERN LI SOUND 1800            48     260/ 10/ 12   N/A
ROBBINS REEF     1800            53     140/  5/  7 1003.7
$$


>>>>>>>>>>>>>>>>>>>>>>>>>>>> KEY <<<<<<<<<<<<<<<<<<<<<<<<<<<
>                                                          <
>     SKY/WX - SKY CONDITION/PRESENT WEATHER               <
>     TMP    - TEMPERATURE IN FAHRENHEIT                   <
>     DP     - DEWPOINT IN FAHRENHEIT                      <
>     RH     - RELATIVE HUMIDITY IN PERCENT                <
>     WIND   - DIRECTION AND SPEED IN MPH                  <
>     PRES   - MEAN SEA LEVEL PRESSURE IN INCHES OF HG     <
>     WCI    - WIND CHILL INDEX                            <
>     VSB    - VISIBILITY IN MILES                         <
>     HX     - HEAT INDEX                                  <
>     TC     - TEMPERATURE IN CELSIUS                      <
>     VRB    - VARIABLE WIND DIRECTION                     <
>                                                          <
>>>>>>>>>>>>>>>>>>>>>>>>>>>> KEY <<<<<<<<<<<<<<<<<<<<<<<<<<<





USA.gov is the U.S. government's official web portal to all federal, state and local government web resources and services.